metlocid,date_time,avg_airt1m,std_airt1m,min_airt1m,max_airt1m,n_airt1m,avg_airt3m,std_airt3m,min_airt3m,max_airt3m,n_airt3m,n_comments
HODM,11/1/93,,,,,0,-7.849756098,2.209186754,-12.62,-1.23,82,0
HODM,12/1/93,,,,,0,-6.613840063,3.228733276,-14.12,3.45,1388,1
HODM,1/1/94,,,,,0,-2.962267606,2.726505291,-13.22,4.6,710,0
HODM,2/1/94,,,,,0,-12.04852675,4.566621418,-22.59,-1.23,224,4
HODM,3/1/94,,,,,0,-21.80528226,3.614052792,-30.87,-11.84,248,0
HODM,4/1/94,,,,,0,-18.37141665,5.168915468,-31.36,-8.68,240,1
HODM,5/1/94,,,,,0,-28.1165323,4.964740183,-37.8,-16.03,248,0
HODM,6/1/94,,,,,0,-22.88258334,5.392278283,-35.62,-11.31,240,0
HODM,7/1/94,,,,,0,-23.90874998,7.756870225,-37.83,-4.67,248,0
HODM,8/1/94,,,,,0,-27.3500807,5.625220544,-38.07,-13.95,248,0
HODM,9/1/94,,,,,0,-24.79674999,5.335113032,-37.4,-10,240,2
HODM,10/1/94,,,,,0,-17.10616934,5.073761798,-28.22,-7.32,248,0
HODM,11/1/94,,,,,0,-10.97861876,3.478220418,-17.31,4.19,724,2
HODM,12/1/94,,,,,0,-5.663558944,3.050802113,-16.35,6.13,2231,6
HODM,1/1/95,,,,,0,-5.632830866,2.66078953,-11.85,2.88,2229,0
HODM,2/1/95,,,,,0,-9.269980154,4.652844354,-19.14,3.02,2016,0
HODM,3/1/95,,,,,0,-19.419431,4.837542958,-29.52,-6.9,2232,0
HODM,4/1/95,,,,,0,-24.72072218,6.015271756,-36.53,-10.94,2160,0
HODM,5/1/95,,,,,0,-25.65239246,5.589861185,-38.35,-11.04,2232,0
HODM,6/1/95,,,,,0,-23.07323609,5.90324132,-34.8,-5.34,2160,0
HODM,7/1/95,,,,,0,-24.7721102,4.315644819,-33.72,-8.82,2232,0
HODM,8/1/95,,,,,0,-23.72939964,5.967367795,-34.5,-5.36,2232,0
HODM,9/1/95,,,,,0,-24.75528238,7.414506152,-39.15,-9.75,2160,0
HODM,10/1/95,,,,,0,-17.4993369,4.388195722,-26.93,-4.05,2232,0
HODM,11/1/95,-6.82878881,2.482639541,-13,-1.06,322,-9.232482139,5.201004092,-27.47,5.55,2240,0
HODM,12/1/95,-3.599781511,2.95189275,-12.33,8.61,2975,-3.417183196,2.849901673,-11,11.83,2975,0
HODM,1/1/96,-5.335568257,2.91104286,-12.8,4.47,2974,-5.038305314,2.718810165,-11.29,3.61,2974,0
HODM,2/1/96,-9.529597705,5.354642172,-20.7,2.98,2784,-8.982816086,5.249741552,-19.98,4.5,2784,0
HODM,3/1/96,-17.72359878,5.226157792,-28.72,2.18,2976,-17.07058803,5.297667317,-28.45,2.78,2976,0
HODM,4/1/96,-18.555,5.516241618,-28.88,-4.54,2880,-17.84168404,5.509228941,-28.49,-4.12,2880,0
HODM,5/1/96,-24.93514449,5.696569313,-36.4,-11.93,2976,-24.19731517,5.791747354,-35.76,-10.91,2976,0
HODM,6/1/96,-25.58651737,5.44164593,-34.96,-7.65,2880,-24.71970833,5.469830124,-34.51,-6.85,2880,0
HODM,7/1/96,-25.70758064,5.619925744,-37.44,-6.73,2976,-24.72814181,5.692419417,-36.61,-5.98,2976,0
HODM,8/1/96,-19.85399865,6.821242351,-35.01,-1.14,2976,-18.97725807,6.867504685,-34.88,-0.44,2976,0
HODM,9/1/96,-23.28494444,3.048255683,-31.26,-11.87,2880,-22.31492707,3.101208441,-30.73,-11.06,2880,0
HODM,10/1/96,-20.08578629,4.689009517,-32.54,-7.24,2976,-19.17722109,4.840127835,-31.4,-5.58,2976,0
HODM,11/1/96,-9.507075374,5.257995376,-25.03,2.4,2879,-8.877544289,5.221455365,-24.27,6.52,2879,0
HODM,12/1/96,-3.624243953,2.962598603,-11.53,7.62,2976,-3.331925406,2.817893491,-10.74,9.04,2976,0
HODM,1/1/97,-5.095519322,3.205298564,-13.01,6.62,2975,-4.796786553,3.041215789,-11.82,7.19,2975,0
HODM,2/1/97,-12.99949404,4.326327701,-21.51,-0.93,2688,-12.27732888,4.189036941,-20.08,1.87,2688,0
HODM,3/1/97,-21.48028226,3.800728786,-31.13,-9.09,2976,-20.4564785,4.087683203,-29.79,-6.07,2976,0
HODM,4/1/97,-25.62247568,5.896133122,-38.56,-7.62,2880,-24.81868749,5.92710113,-37.89,-7.12,2880,0
HODM,5/1/97,-23.14805781,6.342582962,-36.84,-6.24,2976,-22.37398185,6.331445268,-36.28,-5.44,2976,0
HODM,6/1/97,-22.73941319,6.761132394,-35.39,-7.38,2880,-21.89518748,6.838107821,-34.19,-6.2,2880,0
HODM,7/1/97,-28.9777352,5.850626754,-41.52,-12.92,2976,-28.12491936,5.896778696,-41.4,-12.15,2976,0
HODM,8/1/97,-29.41298723,6.233129063,-41.19,-14.99,2976,-28.57205984,6.149277314,-40.97,-14.15,2976,0
HODM,9/1/97,-23.78638542,7.838461201,-41.3,-3.24,2880,-22.9089375,7.869577467,-40.31,-2.48,2880,0
HODM,10/1/97,-15.16879368,4.717082291,-26.63,-6.17,2976,-14.65331653,4.788020026,-26.16,-4.59,2976,0
HODM,11/1/97,-6.208831708,5.940153763,-25.04,3.86,2876,-5.997708634,5.911075222,-24.08,4.53,2876,0
HODM,12/1/97,-6.164448927,3.594411278,-15.58,5.1,2976,-6.02105847,3.436009084,-15.07,5.55,2976,0
HODM,1/1/98,-6.490950946,3.103935406,-15.21,1.52,2976,-6.274250668,2.725384439,-14.1,2.33,2976,0
HODM,2/1/98,-9.557477673,4.135926112,-21.77,0.44,2688,-8.996506689,3.977051208,-20.43,1.67,2688,0
HODM,3/1/98,-19.9521875,4.348828967,-33.48,-9.73,2976,-19.063209,4.371102791,-32.55,-9.36,2976,0
HODM,4/1/98,-27.1138368,6.156970708,-37.98,-7.57,2880,-26.07564234,6.071083142,-37.08,-6.62,2880,0
HODM,5/1/98,-24.00704638,5.740488374,-35.78,-5.78,2976,-23.24419354,5.719953685,-35.73,-5.21,2976,0
HODM,6/1/98,-18.80952429,4.680129164,-32.38,-8.88,2880,-18.00093401,4.735419313,-31.45,-8.15,2880,0
HODM,7/1/98,-25.06515122,5.605049793,-35.57,-11.73,2976,-24.25688846,5.654177561,-34.74,-11.22,2976,0
HODM,8/1/98,-24.66073927,5.139842155,-36.08,-9.75,2976,-23.85237231,5.071416541,-34.58,-9.16,2976,0
HODM,9/1/98,-27.74958679,6.125481223,-37.11,-5.59,2880,-26.9325243,6.202794479,-36.98,-4.42,2880,0
HODM,10/1/98,-17.82253698,5.325780658,-27.97,-3.07,2976,-17.32477151,5.492195426,-27.54,-2,2976,0
HODM,11/1/98,-11.91438194,4.955813079,-25.66,2.04,2880,-11.76656598,4.774108391,-25.33,1.16,2880,0
HODM,12/1/98,-5.193595436,3.400024991,-14.8,3.1,2976,-5.276952286,3.305406815,-14.54,4.95,2976,0
HODM,1/1/99,-4.211011425,2.863831728,-11.81,4.58,2976,-4.133020835,2.708294407,-11.39,4.52,2976,0
HODM,2/1/99,-10.74811384,4.617333867,-21.1,0.8,2688,-10.61943824,4.559142202,-20.79,0.87,2688,0
HODM,3/1/99,-19.3538407,4.309864862,-27.91,-8.94,2976,-18.67879704,4.404269786,-27.49,-7.4,2976,0
HODM,4/1/99,-25.49397918,5.674727604,-34.88,-9.87,2880,-24.83933683,5.648294702,-33.93,-9.17,2880,0
HODM,5/1/99,-25.5834274,6.204047348,-38.66,-9.89,2976,-24.76762769,6.263893836,-37.82,-9.54,2976,0
HODM,6/1/99,-22.09601042,5.63640864,-32.31,-7.66,2880,-21.36948611,5.770442473,-31.67,-7.17,2880,0
HODM,7/1/99,-22.55732863,6.513582683,-35.48,-9.31,2976,-21.89686154,6.439159091,-34.58,-8.97,2976,0
HODM,8/1/99,-26.65928092,5.293150615,-36.8,-12.28,2976,-25.84799397,5.263350649,-35.87,-11.73,2976,0
HODM,9/1/99,-21.12136112,5.361008942,-32.35,-4.25,2880,-20.47559027,5.43118055,-31.55,-3.48,2880,0
HODM,10/1/99,-17.01574596,4.624165211,-30.12,-3.48,2976,-16.34923387,4.595868621,-29.68,-2.92,2976,0
HODM,11/1/99,-9.173253476,4.043152349,-20.27,0.4,2880,-8.838576384,3.990686811,-19.57,0.68,2880,0
HODM,12/1/99,-5.555342747,2.3933808,-13.44,1.6,2976,-5.440651882,2.18594763,-12.81,2.15,2976,0
HODM,1/1/00,-6.314677428,2.413115896,-14.09,0.14,2976,-6.285260507,2.382271437,-14.27,0.69,2975,1
HODM,2/1/00,-11.97051724,3.583306125,-21.51,-3.78,2784,-11.84250359,3.502530031,-21.27,-4.06,2784,0
HODM,3/1/00,-17.21559139,4.114148728,-28.43,-5.28,2976,-16.82361896,4.130570671,-28.01,-4.88,2976,0
HODM,4/1/00,-20.40165624,5.162239488,-29.95,-3.9,2880,-19.94428125,5.1309253,-29.56,-3.6,2880,0
HODM,5/1/00,-23.22866644,5.997019703,-38.45,-9.54,2947,-22.67395521,6.040805054,-38.22,-9.31,2948,29
HODM,6/1/00,-24.09673263,7.242560728,-35.56,-4.37,2880,-23.52082291,7.23139344,-34.98,-4.08,2880,0
HODM,7/1/00,-23.1863251,6.670784333,-38.15,-7.31,2947,-22.60717096,6.729350998,-37.68,-7.03,2948,29
HODM,8/1/00,-24.67121636,6.201361178,-34.43,-8,2976,-24.09682795,6.216057907,-34.15,-7.75,2976,0
HODM,9/1/00,-23.25743402,7.055195578,-37.31,-7.15,2880,-22.78671181,7.047563357,-37.38,-6.82,2880,0
HODM,10/1/00,-21.34070565,5.081552518,-31.8,-9.3,2976,-20.98222447,5.171235866,-31.44,-8.43,2976,0
HODM,11/1/00,-9.203979167,4.951925848,-24.23,1.12,2880,-8.973736109,4.908611982,-24.02,0.01,2880,0
HODM,12/1/00,-6.928420691,2.215931095,-13.23,-0.93,2976,-6.90680108,2.022238886,-12.49,-1.13,2976,0
HODM,1/1/01,-7.986021505,3.040961445,-14.64,3.08,2976,-7.907090054,2.834209185,-13.27,3.25,2976,0
HODM,2/1/01,-9.492726939,3.25290926,-17.82,1.88,2688,-9.437645078,3.151569093,-17.27,1.96,2688,0
HODM,3/1/01,-20.09576949,4.858850292,-28.46,-3.29,2976,-19.79269155,4.933430213,-28.15,-2.71,2976,0
HODM,4/1/01,-22.49693056,5.396442198,-33.73,-7.12,2880,-22.03669789,5.414957314,-32.89,-6.84,2880,0
HODM,5/1/01,-22.69437164,6.692564993,-33.14,-4.52,2976,-22.14498655,6.751066375,-33.04,-4,2976,0
HODM,6/1/01,-21.93198611,5.932989202,-34.27,-6.87,2880,-21.40909029,5.96873265,-34,-6.31,2880,0
HODM,7/1/01,-23.22008065,5.519188093,-36.98,-7.88,2976,-22.66175403,5.580206071,-36.9,-7.39,2976,0
HODM,8/1/01,-30.14255712,5.137051766,-41.26,-17.75,2976,-29.56521505,5.184686536,-41.06,-17.42,2976,0
HODM,9/1/01,-22.73016667,5.02723825,-31.98,-8.01,2880,-22.21096182,5.013706672,-31.47,-7.67,2880,0
HODM,10/1/01,-18.94686492,5.272028721,-29.93,-6.65,2976,-18.81174731,5.312222882,-29.84,-6.38,2976,0
HODM,11/1/01,-10.5029618,3.843403094,-21.62,-1.91,2880,-10.6322743,3.745994604,-21.25,-2.59,2880,0
HODM,12/1/01,-3.554774868,3.466744969,-11.84,6.29,2976,-3.664727825,3.518229289,-12.01,6.53,2976,0
HODM,1/1/02,-3.324956316,3.52660771,-11.19,7.1,2976,-3.353309811,3.573025649,-11.06,7.52,2976,0
HODM,2/1/02,-10.01039063,3.89904923,-17.57,0,2688,-10.00379093,3.86786057,-17.3,-0.18,2688,0
HODM,3/1/02,-16.78719087,4.446672241,-27.49,-6.68,2976,-16.58438508,4.473460646,-27.49,-6.77,2976,0
HODM,4/1/02,-21.81623611,4.903077232,-29.76,-8.63,2880,-21.41199999,4.912082952,-29.35,-8.36,2880,0
HODM,5/1/02,-19.52224127,5.471070292,-32.08,-5.05,2976,-19.18637097,5.449854506,-31.92,-4.89,2976,0
HODM,6/1/02,-27.88002776,5.938751699,-36.58,-9.76,2880,-27.50800346,5.984448425,-36.66,-9.43,2880,0
HODM,7/1/02,-26.64830981,4.897234249,-38.75,-11.68,2976,-26.19230512,4.940692851,-38.45,-11.48,2976,0
HODM,8/1/02,-29.06768145,5.466389584,-39.6,-13.22,2976,-28.7022547,5.483893096,-39.39,-13.06,2976,0
HODM,9/1/02,-21.92590973,4.941857358,-32.74,-7.92,2880,-21.55849304,4.992866575,-32.47,-7.57,2880,0
HODM,10/1/02,-18.09792339,3.579359279,-26.78,-7.41,2976,-17.92687164,3.587780482,-26.61,-7.37,2976,0
HODM,11/1/02,-13.07344096,2.85033544,-20.19,-3.05,2880,-13.04190625,2.819596438,-20.21,-2.84,2880,0
HODM,12/1/02,-6.561814514,3.173998978,-17.7,0.49,2976,-6.662100136,3.143055578,-17.51,1.33,2976,0
HODM,1/1/03,-3.82000336,3.052035213,-10.7,5.05,2976,-3.951246643,3.05133198,-10.46,6.04,2976,0
HODM,2/1/03,-9.876793154,2.90508657,-16.71,-1.64,2688,-9.877079614,2.836508238,-16.58,-1.91,2688,0
HODM,3/1/03,-18.6479637,4.690757713,-29.33,-9.04,2976,-18.4548051,4.727322784,-29.07,-8.87,2976,0
HODM,4/1/03,-23.00036805,4.329166728,-30.39,-4.95,2880,-22.71446528,4.335294487,-30.24,-4.89,2880,0
HODM,5/1/03,-19.91806786,6.282428422,-30.23,-2.08,2976,-19.64944893,6.27181703,-30.19,-1.93,2976,0
HODM,6/1/03,-23.19372571,4.812036223,-33.21,-10.75,2880,-22.90480901,4.867568645,-33.13,-10.5,2880,0
HODM,7/1/03,-22.72106856,4.272839511,-39.16,-12.12,2976,-22.36448251,4.316238938,-39.06,-12,2976,0
HODM,8/1/03,-27.23970767,4.638578872,-37.45,-10.97,2976,-26.90854167,4.687308221,-37.51,-10.73,2976,0
HODM,9/1/03,-22.57113887,6.001258668,-34.5,-11.45,2880,-22.34539583,5.969410905,-34.34,-11.39,2880,0
HODM,10/1/03,-16.99588038,3.755540779,-29.3,-8.71,2976,-16.86564517,3.745574251,-29.05,-7.63,2976,0
HODM,11/1/03,-12.09680903,2.909878255,-20.94,-2.66,2880,-12.06399305,2.887906181,-21,-2.66,2880,0
HODM,12/1/03,-4.750940859,3.27931826,-12.71,4.25,2976,-4.525856858,3.265345364,-12.32,4.46,2976,0
HODM,1/1/04,-6.246381043,3.035666742,-13.26,3.1,2976,-5.999973118,3.038194185,-13.03,3.29,2976,0
HODM,2/1/04,-11.39438219,3.17807543,-20.26,-2.27,2784,-11.16969828,3.172947075,-20.04,-1.79,2784,0
HODM,3/1/04,-21.70654234,4.376368356,-30.71,-8.16,2976,-21.50478832,4.382811171,-30.41,-8.24,2976,0
HODM,4/1/04,-21.55842014,4.241412452,-32.1,-12.65,2880,-21.2540382,4.282055491,-32.14,-12.46,2880,0
HODM,5/1/04,-25.30969421,6.085491701,-35.45,-7.08,2976,-24.98353829,6.070774709,-35.08,-6.93,2976,0
HODM,6/1/04,-22.27310071,6.29896169,-37.1,-3.84,2880,-21.97780901,6.34002073,-37.02,-3.52,2880,0
HODM,7/1/04,-32.86788307,5.303133295,-43.97,-10.51,2976,-32.55183467,5.395730422,-43.91,-9.81,2976,0
HODM,8/1/04,-27.03572914,5.636414326,-38.1,-6.65,2976,-26.68989916,5.6756815,-38.1,-6.24,2976,0
HODM,9/1/04,-25.18998265,4.600469346,-37.48,-12.55,2880,-24.97205209,4.67155972,-37.5,-12.42,2880,0
HODM,10/1/04,-18.42053763,4.943463542,-33.32,-7.83,2976,-18.2507863,4.976427424,-33.32,-7.75,2976,0
HODM,11/1/04,-9.052121531,4.194987902,-18.46,0.38,2880,-8.927986114,4.192062916,-18.35,0.26,2880,0
HODM,12/1/04,-3.915110891,2.107500319,-11.12,4.27,2976,-3.806454972,2.127049186,-11.16,4.05,2976,0
HODM,1/1/05,-4.546139118,3.141400022,-13.99,3.64,2976,-4.410366265,3.155731557,-13.64,3.79,2976,0
HODM,2/1/05,-10.9570759,4.025683656,-21.78,2.36,2688,-10.80041295,3.979230016,-21.82,2.08,2688,0
HODM,3/1/05,-18.55347447,2.978694908,-25.71,-8.59,2976,-18.30454636,2.952334599,-25.29,-8.42,2976,0
HODM,4/1/05,-24.18047223,4.708575507,-34.73,-13.38,2880,-23.92721526,4.714061706,-34.44,-13.13,2880,0
HODM,5/1/05,-21.33007058,5.240879149,-33.75,-9.37,2976,-21.03450605,5.258974268,-33.6,-9.15,2976,0
HODM,6/1/05,-24.5154861,6.406557199,-37.94,-4.55,2880,-24.21651737,6.397963746,-37.37,-4.2,2880,0
HODM,7/1/05,-24.45265456,6.465377168,-37.36,-5.07,2976,-24.16716734,6.488830998,-37.03,-4.83,2976,0
HODM,8/1/05,-27.01219761,6.305302316,-42.79,-10.63,2976,-26.71692539,6.36181706,-42.7,-10.46,2976,0
HODM,9/1/05,-21.77579167,6.529033496,-34.14,0.15,2880,-21.42396527,6.565293149,-33.92,0.49,2880,0
HODM,10/1/05,-17.25779235,5.76403571,-30.7,-3.74,2976,-17.11523185,5.767666762,-30.63,-3.46,2976,0
HODM,11/1/05,-10.76382292,3.114358325,-17.95,-3.84,2880,-10.73818403,3.051776364,-17.78,-3.79,2880,0
HODM,12/1/05,-3.504126347,2.498670247,-12.44,4.15,2976,-3.43950941,2.512998992,-12.19,4.63,2976,0
HODM,1/1/06,-4.770376473,2.482277425,-11.62,1.91,2975,-4.755549581,2.47604604,-11.67,2.44,2975,0
HODM,2/1/06,-9.911395428,1.09128272,-11.56,-7.39,43,-10.02552828,3.107205933,-18.43,-1.82,2688,0
HODM,3/1/06,,,,,0,-18.52908938,3.698895731,-26.87,-7.73,2976,0
HODM,4/1/06,,,,,0,-24.68732638,4.604931785,-35.77,-11.83,2880,0
HODM,5/1/06,,,,,0,-27.50080979,7.445212813,-38.6,-5.92,2976,0
HODM,6/1/06,,,,,0,-22.37555901,7.867917878,-37.14,-6,2880,0
HODM,7/1/06,,,,,0,-28.52231518,4.275013835,-36.57,-14.41,2976,0
HODM,8/1/06,,,,,0,-19.87209007,5.010353689,-29.52,-8.66,2976,0
HODM,9/1/06,,,,,0,-22.99927085,6.883991076,-35,-5.88,2880,0
HODM,10/1/06,,,,,0,-20.13082327,4.36647947,-30.82,-8.46,2976,0
HODM,11/1/06,,,,,0,-10.57855904,4.867642338,-22.69,1.27,2880,0
HODM,12/1/06,,,,,0,-7.019929437,3.173664941,-16.78,3.8,2976,0
HODM,1/1/07,-2.667774031,2.122347026,-7.93,3.17,1186,-2.519435483,2.420857855,-8.71,5.38,2976,0
HODM,2/1/07,-11.77549851,4.58349031,-22.43,-2.49,2688,-11.68393229,4.457881191,-22.22,-1.98,2688,0
HODM,3/1/07,-18.23148857,5.139265962,-29.46,-4.01,2976,-17.885793,5.216798671,-29.23,-4.07,2976,0
HODM,4/1/07,-22.75036112,5.445343401,-33.75,-8.02,2880,-22.24030901,5.414245861,-33.14,-7.49,2880,0
HODM,5/1/07,-18.99393481,6.139624921,-32.67,-6.42,2976,-18.38699932,6.200964409,-32.36,-6.04,2976,0
HODM,6/1/07,-21.17623611,6.360134894,-35.29,-4.99,2880,-20.70011458,6.376662087,-35,-4.65,2880,0
HODM,7/1/07,-23.33867607,5.77303179,-34.71,-5.53,2976,-22.75018817,5.826614781,-34.38,-5.17,2976,0
HODM,8/1/07,-23.68553427,5.920014993,-35.96,-1.9,2976,-23.15256719,5.983823841,-36.04,-1.28,2976,0
HODM,9/1/07,-21.49084027,4.384766336,-29.52,-6.29,2880,-21.12112498,4.396012805,-28.98,-5.79,2880,0
HODM,10/1/07,-20.00946235,4.877942987,-35.68,-8.97,2976,-19.78713036,4.934453715,-35.71,-7.2,2976,0
HODM,11/1/07,-11.44055901,4.946762897,-26.32,-1.02,2880,-11.1356875,4.876220174,-25.99,1.57,2880,0
HODM,12/1/07,-5.483645834,3.847365271,-16.31,3.3,2976,-5.385551081,3.782741105,-15.9,3.15,2976,0
HODM,1/1/08,-4.998242019,3.101225246,-13.27,3.93,2975,-4.784457138,2.996247285,-12.65,3.84,2975,0
HODM,2/1/08,-12.91696479,3.57497654,-21.92,-3.55,2784,-12.6749102,3.514413964,-21.37,-3.3,2784,0
HODM,3/1/08,-17.96728495,6.024873051,-29.95,-1.94,2976,-17.54027888,6.035155631,-29.53,-1.39,2976,0
HODM,4/1/08,-19.60804861,4.583661931,-30.44,-7.66,2880,-19.03125001,4.639105191,-30.24,-6.93,2880,0
HODM,5/1/08,-23.68528562,5.161597302,-33.66,-7.11,2976,-23.0413844,5.202707616,-33.02,-6.77,2976,0
HODM,6/1/08,-19.59182293,5.606540502,-31.8,-4.94,2880,-19.17783333,5.649182322,-31.18,-4.57,2880,0
HODM,7/1/08,-27.4098454,5.755912167,-36.61,-9.16,2976,-26.81490925,5.813882594,-36.55,-8.57,2976,0
HODM,8/1/08,-30.29693885,5.209053941,-42.06,-13.35,2976,-29.66856519,5.280646207,-41.42,-12.82,2976,0
HODM,9/1/08,-19.87809027,5.277566158,-36.87,-8.22,2880,-19.34021179,5.228320237,-36.64,-7.69,2880,0
HODM,10/1/08,-18.50576611,3.827512646,-29.02,-9.96,2976,-18.22274529,3.8050615,-29.1,-9.54,2976,0
HODM,11/1/08,-12.18176736,4.015002631,-21.74,-2.63,2880,-12.12472916,3.917102937,-21.42,-2.59,2880,0
HODM,12/1/08,-4.439294352,3.133350938,-12.5,5.18,2976,-4.527694892,3.083437399,-12.46,5.57,2976,0
HODM,1/1/09,-3.498945123,2.156543214,-8.84,2.26,1403,-3.508574486,2.021388583,-8.39,2.39,1403,0
HODM,10/1/09,-19.53709058,2.858097471,-28.23,-12.7,1093,-19.35855445,2.87091144,-28.26,-12.34,1093,0
HODM,11/1/09,-8.436958329,4.878196927,-19.74,2.14,2880,-8.20458333,4.817309634,-19.46,2.91,2880,0
HODM,12/1/09,-5.008813845,2.622289417,-11.87,2.49,2976,-5.006142476,2.568968685,-11.44,2.58,2976,0
HODM,1/1/10,-5.229613577,2.474044777,-11.6,2.43,2976,-5.17530914,2.374042019,-11.04,3.47,2976,0
HODM,2/1/10,-10.81777529,4.020493652,-21.18,-1.15,2688,-10.65690476,3.942686487,-20.72,-1,2688,0
HODM,3/1/10,-17.33318548,5.545602242,-32.22,-3.42,2976,-17.06640122,5.536822297,-32.08,-3.06,2976,0
HODM,4/1/10,-20.73078474,4.053050993,-31.37,-8.27,2880,-20.33651736,4.095966707,-31.02,-7.79,2880,0
HODM,5/1/10,-23.69905577,6.607745053,-38.12,-11.1,2976,-23.24504031,6.69816838,-37.45,-10.4,2976,0
HODM,6/1/10,-24.27438889,4.580826631,-32.1,-9.89,2880,-23.7977743,4.609181917,-31.65,-9.54,2880,0
HODM,7/1/10,-26.82342403,5.426768109,-40.48,-12.74,2976,-26.38165658,5.413218694,-40.32,-12.46,2976,0
HODM,8/1/10,-25.78869962,5.82705915,-36.8,-11.13,2976,-25.38318547,5.818880677,-36.66,-10.74,2976,0
HODM,9/1/10,-26.20443056,5.528803587,-37.95,-13.9,2880,-25.80630554,5.551385409,-37.78,-13.73,2880,0
HODM,10/1/10,-17.87531922,3.840838646,-27.63,-3,2976,-17.56238911,3.857329309,-27.59,-2.82,2976,0
HODM,11/1/10,-9.581552082,3.197728405,-18.01,1.8,2880,-9.584763894,3.197857233,-17.84,1.89,2880,0
HODM,12/1/10,-3.610594758,3.463902673,-14.68,6.89,2976,-3.680957663,3.45280627,-14.52,7.13,2976,0
HODM,1/1/11,-5.908790122,2.140832779,-11.75,-0.98,1215,-5.935215054,3.191798765,-13.55,3.11,2976,0
HODM,2/1/11,,,,,0,-10.12740699,2.663792104,-16.39,-2.2,2688,0
HODM,3/1/11,,,,,0,-18.25965726,4.006957346,-27.05,-6.21,2976,0
HODM,4/1/11,,,,,0,-20.60646874,6.553211307,-32.82,-3,2880,0
HODM,5/1/11,,,,,0,-21.94122312,5.196459392,-32.35,-7.74,2976,0
HODM,6/1/11,,,,,0,-20.80887849,6.569350388,-33.06,-5.67,2880,0
HODM,7/1/11,,,,,0,-19.04183133,5.901746814,-34.98,-5.84,2976,0
HODM,8/1/11,,,,,0,-19.8669086,7.615325389,-35.3,-4.24,2976,0
HODM,9/1/11,,,,,0,-22.59867709,7.727182253,-39.34,-7.85,2880,0
HODM,10/1/11,,,,,0,-18.16569894,4.891261208,-30.03,-5.83,2976,0
HODM,11/1/11,,,,,0,-8.356472223,3.411949809,-24.62,1.96,2880,0
HODM,12/1/11,-0.172444442,1.401898216,-3.14,2.54,135,-4.788779988,3.076627148,-11.89,4.7,2959,15
HODM,1/1/12,-5.717189915,2.896606704,-13.29,4.63,2975,-5.731468902,2.749090216,-12.93,4.53,2975,0
HODM,2/1/12,-9.864974852,4.468702041,-22.93,2.22,2784,-9.736885776,4.365119575,-21.98,2.56,2784,0
HODM,3/1/12,-18.0862668,4.294893772,-31.08,-6.99,2976,-17.67649529,4.325151579,-30.82,-6.77,2976,0
HODM,4/1/12,-21.74809722,5.276873439,-31.06,-6.88,2880,-21.20901043,5.280571227,-30.31,-6.53,2880,0
HODM,5/1/12,-18.61263441,6.312808742,-29.8,-3.6,2976,-18.17783266,6.340070423,-29.53,-2.84,2976,0
HODM,6/1/12,-24.46218404,5.935935766,-34.68,-8.72,2880,-23.88356597,5.991229056,-34.42,-8.08,2880,0
HODM,7/1/12,-26.42557458,4.237938892,-36.07,-15.95,2976,-25.80488237,4.238056031,-35.54,-15.56,2976,0
HODM,8/1/12,-25.33864583,6.619366117,-36.18,-10.19,2976,-24.80608535,6.609591985,-35.81,-9.76,2976,0
HODM,9/1/12,-22.95570831,4.53686955,-33.36,-12.59,2880,-22.42247222,4.585499901,-32.42,-12.19,2880,0
HODM,10/1/12,-18.23577286,3.162933998,-26.06,-8.64,2976,-17.90084342,3.005262226,-25.02,-8.41,2976,0
HODM,11/1/12,-11.39476388,3.997984181,-21.59,-0.86,2880,-11.22467709,3.801590037,-20.98,-0.91,2880,0
HODM,12/1/12,-4.160510756,2.923553144,-12.58,7,2976,-4.101028226,2.837562895,-11.96,7.42,2976,0
HODM,1/1/13,-4.984186827,2.678845915,-13.07,4.58,2976,-4.875779575,2.469145059,-12.5,4.24,2976,0
HODM,2/1/13,-11.79340774,3.575998007,-22.07,-1.12,2688,-11.55013394,3.448860095,-21.37,-1.48,2688,0
HODM,3/1/13,-17.8402621,6.047376606,-33.11,-5.67,2976,-17.40143145,6.125364611,-32.9,-5.32,2976,0
HODM,4/1/13,-24.75610415,5.431087502,-35.75,-9.78,2880,-24.16068403,5.39621822,-35.12,-9.43,2880,0
HODM,5/1/13,-21.71606522,5.632604298,-35.44,-7.56,2976,-21.17521505,5.675806391,-35.37,-7.14,2976,0
HODM,6/1/13,-23.44338888,6.789799698,-39.39,-9.23,2880,-22.81834372,6.889219391,-39.13,-8.65,2880,0
HODM,7/1/13,-27.63439517,4.352022551,-37.74,-12.85,2976,-27.02445564,4.421130133,-37.45,-12.41,2976,0
HODM,8/1/13,-23.90570229,5.813538825,-33.8,-4.16,2976,-23.19627691,5.883419629,-33.6,-3.58,2976,0
HODM,9/1/13,-19.08249305,5.4906104,-31.07,-3.73,2880,-18.47937848,5.578861834,-30.33,-3.12,2880,0
HODM,10/1/13,-17.54504703,4.256294544,-28.33,-6.37,2976,-17.26214046,4.212243264,-28.04,-5.94,2976,0
HODM,11/1/13,-11.12787153,5.12841099,-23.2,1.95,2880,-11.06536459,5.053877158,-23.05,1.68,2880,0
HODM,12/1/13,-4.642661289,2.302239021,-10.36,1.9,2976,-4.695352824,2.216407711,-10.38,1.74,2976,0
HODM,1/1/14,-3.700299059,2.738436724,-10.97,4.43,2976,-3.668864247,2.687413723,-10.49,4.23,2976,2754
HODM,2/1/14,-10.62957962,4.015239819,-20.44,-0.59,2688,-10.60397321,3.992035507,-19.99,-0.78,2688,2688
HODM,3/1/14,-19.56118279,4.290866546,-31.08,-9.2,2976,-19.21843077,4.161778173,-30.32,-9.62,2976,2976
HODM,4/1/14,-23.11467708,6.621963001,-37.48,-4.9,2880,-22.50113193,6.70119848,-37.55,-4.25,2880,2880
HODM,5/1/14,-19.63159274,6.730052272,-34.96,-7.28,2976,-18.94266128,6.670207212,-34.45,-6.67,2976,2976
HODM,6/1/14,-24.98671874,4.398990519,-33.11,-12.08,2880,-24.3829375,4.436696963,-32.2,-11.71,2880,2880
HODM,7/1/14,-29.51491598,6.846715529,-38.32,-7.62,2976,-28.77044354,6.814748416,-37.7,-7.21,2976,2976
HODM,8/1/14,-21.2455477,6.366795871,-37.26,-6.14,2976,-20.75557795,6.339599433,-37.22,-5.72,2976,2976
HODM,9/1/14,-18.2747882,5.134456475,-31.54,-5.92,2880,-17.7774861,5.210258151,-31.7,-5.65,2880,2880
HODM,10/1/14,-15.59217407,4.23431971,-27.93,-4.55,2976,-15.39378024,4.218436048,-27.64,-4.29,2976,2976
HODM,11/1/14,-11.72604723,3.296477294,-20.4,-4.29,2879,-11.8229663,3.129186783,-19.96,-4.76,2879,2879
HODM,12/1/14,-7.311320563,2.952919279,-16.45,0.42,2976,-7.306680108,2.783289908,-15.91,0.7,2976,2976
HODM,1/1/15,-5.015890461,2.818803996,-13.34,3.5,2976,-4.864606856,2.574788936,-12.65,3.96,2976,2976
HODM,2/1/15,-8.335915185,3.442427093,-16.21,3.41,2688,-8.066086311,3.314289245,-16.12,2.78,2688,2688
HODM,3/1/15,-19.51661962,4.269360157,-27.81,-5.4,2976,-19.0939617,4.147841044,-27.2,-4.81,2976,2976
HODM,4/1/15,-24.91704861,4.901958142,-35.41,-9.14,2880,-24.34328471,4.871910447,-35.21,-8.59,2880,2880
HODM,5/1/15,-25.85935822,4.339916698,-34.42,-12.32,2976,-25.11533264,4.404382138,-33.6,-11.76,2976,2976
HODM,6/1/15,-24.34834026,4.502848992,-35.58,-8.81,2880,-23.72175695,4.568898889,-35.54,-8.28,2880,2880
HODM,7/1/15,-26.88198925,5.24316752,-38.53,-11.18,2976,-26.28687163,5.325917637,-37.94,-10.56,2976,2976
HODM,8/1/15,-25.7058703,6.047749712,-38.18,-9.69,2976,-25.12342407,6.092643395,-37.88,-9.33,2976,2976